Tucson Davis Monthan, AZ

8:31 PM MST on June 24, 2018 (GMT -0700)
Davis-Monthan Air Force Base

Weather History for KDMA - December, 2017

Change the Weather History Date:

Wednesday, December 13, 2017

  Actual Average Record
Temperature  
Mean Temperature 64 °F -  
Max Temperature 79 °F 63 °F 82 °F (2010)
Min Temperature 46 °F 38 °F 26 °F (1949)
Degree Days  
Heating Degree Days 2    
Growing Degree Days 14 (Base 50)    
Moisture  
Dew Point 20 °F    
Average Humidity 22    
Maximum Humidity 36    
Minimum Humidity 13    
Precipitation  
Precipitation 0.00 in - - ()
Sea Level Pressure  
Sea Level Pressure 29.95 in    
Wind  
Wind Speed 10 mph (ESE)    
Max Wind Speed 17 mph    
Max Gust Speed -    
Visibility 10 miles    
Events      
Averages and records for this station are not official NWS values.
T = Trace of Precipitation, MM = Missing Value Source: NWS Daily Summary

Daily Weather History Graph

Daily Weather History Graph

Search for Another Location

Airport or City:

Astronomy

Dec. 13, 2017 Rise Set
Actual Time 7:15 AM MST 5:19 PM MST
Civil Twilight 6:48 AM MST 5:46 PM MST
Nautical Twilight 6:18 AM MST 6:17 PM MST
Astronomical Twilight 5:48 AM MST 6:47 PM MST
Moon 3:01 AM MST (12/13) 2:45 PM MST (12/13)
Length of Visible Light 10h 58m
Length of Day
10h 04m
Waning Crescent, 18% of the Moon is Illuminated
Dec 13
Waning Crescent
Dec 17
New
Dec 26
First Quarter
Jan 1
Full
Jan 8
Last Quarter

Hourly Weather History & Observations

Time (MST) Temp. Dew Point Humidity Pressure Visibility Wind Dir Wind Speed Gust Speed Precip Events Conditions
12:58 AM 55.0 °F 15.8 °F 21% 30.00 in 10.0 mi ESE 5.8 mph - N/A   Clear
1:58 AM 53.4 °F 16.5 °F 23% 29.99 in 10.0 mi ESE 17.3 mph - N/A   Clear
2:58 AM 53.4 °F 16.5 °F 23% 30.00 in 10.0 mi ESE 15.0 mph - N/A   Clear
3:58 AM 51.8 °F 15.1 °F 23% 29.99 in 10.0 mi ESE 13.8 mph - N/A   Clear
4:58 AM 53.6 °F 17.6 °F 24% 29.98 in 10.0 mi ESE 12.7 mph - N/A   Clear
5:58 AM 51.1 °F 16.5 °F 25% 30.00 in 10.0 mi ESE 12.7 mph - N/A   Clear
6:58 AM 50.7 °F 16.2 °F 25% 30.02 in 10.0 mi ESE 16.1 mph - N/A   Clear
7:58 AM 51.3 °F 18.3 °F 27% 30.03 in 10.0 mi ESE 12.7 mph - N/A   Clear
8:58 AM 56.7 °F 18.1 °F 22% 30.03 in 10.0 mi ESE 11.5 mph - N/A   Clear
9:58 AM 61.9 °F 20.3 °F 20% 30.01 in 10.0 mi ESE 13.8 mph - N/A   Clear
10:58 AM 67.1 °F 22.1 °F 18% 29.99 in 10.0 mi ESE 11.5 mph - N/A   Clear
11:58 AM 72.1 °F 23.4 °F 16% 29.95 in 10.0 mi SE 6.9 mph - N/A   Clear
12:58 PM 76.8 °F 23.9 °F 14% 29.91 in 10.0 mi East 4.6 mph - N/A   Clear
1:58 PM 79.2 °F 24.1 °F 13% 29.88 in 10.0 mi NNE 3.5 mph - N/A   Clear
2:58 PM 77.5 °F 24.6 °F 14% 29.88 in 10.0 mi NNW 3.5 mph - N/A   Clear
3:58 PM 75.4 °F 24.4 °F 15% 29.87 in 10.0 mi NW 6.9 mph - N/A   Clear
4:58 PM 72.0 °F 24.8 °F 17% 29.88 in 10.0 mi NW 8.1 mph - N/A   Clear
5:58 PM 64.8 °F 23.9 °F 21% 29.90 in 10.0 mi WNW 4.6 mph - N/A   Clear
6:58 PM 61.2 °F 20.8 °F 21% 29.91 in 10.0 mi WNW 5.8 mph - N/A   Clear
7:58 PM 58.3 °F 22.6 °F 25% 29.92 in 10.0 mi WSW 4.6 mph - N/A   Clear
8:58 PM 53.4 °F 21.9 °F 29% 29.92 in 10.0 mi SSE 6.9 mph - N/A   Clear
9:58 PM 50.2 °F 20.7 °F 31% 29.92 in 10.0 mi SE 9.2 mph - N/A   Clear
10:58 PM 48.6 °F 21.4 °F 34% 29.91 in 10.0 mi SSE 8.1 mph - N/A   Clear
11:58 PM 46.6 °F 21.0 °F 36% 29.91 in 10.0 mi SE 8.1 mph - N/A   Clear